#timestamp,LO_Frequency,Hit,StdDev 
1541606415.2,286046998.2,N
1541606435.1,286046998.1,N
1541606436.0,286046998.1,N
1541606455.8,286046998.6,N
1541606475.7,286046996.6,Y
1541606495.5,286046998.5,P
1541606515.3,286047001.1,P
1541606535.2,286046998.8,N
1541606555.0,286046999.5,N
1541606555.9,286046999.5,N
1541606575.8,286046998.8,N
1541606595.6,286046996.8,Y
1541606615.4,286046997.2,P
1541606635.3,286046997.4,N
1541606655.1,286046997.6,N
1541606675.8,286046996.2,Y
1541606695.7,286046999.6,P
1541606715.5,286046999.0,N
1541606735.4,286046997.0,P
1541606755.2,286046997.4,N
1541606775.0,286046996.5,Y
1541606775.9,286046996.5,P
1541606795.8,286047000.1,N
1541606815.6,286047000.4,N
1541606835.5,286047000.8,N
1541606855.3,286046999.9,N
1541606875.1,286046998.4,N
1541606895.9,286047001.0,N
1541606915.7,286046998.4,N
1541606935.6,286046999.2,N
1541606955.4,286046997.1,N
1541606975.2,286046996.9,N
1541606995.1,286046996.5,N
1541606996.0,286046996.5,N
1541607015.8,286046996.8,N
1541607035.6,286046999.4,N
1541607055.5,286046999.4,N
1541607075.3,286046998.8,N
1541607095.2,286046999.6,N
1541607115.9,286046997.6,N
1541607135.7,286046995.6,Y
1541607155.6,286046999.2,P
1541607175.4,286046995.0,P
1541607195.3,286046995.5,N
1541607215.1,286046996.4,N
1541607216.0,286046996.4,N
1541607235.8,286046996.2,N
1541607255.7,286046993.4,Y
1541607275.5,286046999.6,P
1541607295.4,286046997.4,N
1541607315.2,286046997.6,N
1541607335.0,286046998.0,N
1541607335.9,286046998.0,N
1541607355.8,286046996.5,Y
1541607375.6,286047000.2,P
1541607395.4,286047000.4,N
1541607415.3,286047000.8,N
1541607435.1,286046999.5,N
1541607455.9,286047001.2,N
1541607475.7,286046998.8,N
1541607495.5,286046999.1,N
1541607515.4,286046998.9,N
1541607535.2,286047001.1,N
1541607555.0,286046998.6,N
1541607555.9,286046998.6,N
1541607575.8,286046996.9,N
1541607595.6,286046999.3,N
1541607615.5,286046998.9,N
1541607635.3,286046998.1,N
1541607655.1,286046998.8,N
1541607675.9,286046998.7,N
1541607695.7,286046998.9,N
1541607715.5,286046998.6,N
1541607735.4,286047001.2,N
1541607755.2,286046996.6,Y
1541607775.1,286046999.0,P
1541607776.0,286046999.0,P
1541607795.8,286046998.6,P
1541607815.6,286046999.9,N
1541607835.5,286047000.1,N
1541607855.3,286047002.0,Y
1541607875.1,286047001.8,P
1541607895.9,286047002.0,N
1541607915.7,286047000.1,N
1541607935.6,286047002.1,N
1541607955.4,286047000.2,N
1541607975.2,286047000.5,N
1541607995.1,286047002.5,N
1541607996.0,286047002.5,N
1541608015.8,286047003.1,N
1541608035.6,286047003.2,N
1541608055.5,286047003.2,N
1541608075.3,286047005.4,Y
1541608095.2,286047002.4,P
1541608115.9,286047000.0,N
1541608135.7,286047002.0,N
1541608155.6,286047003.9,Y
1541608175.4,286047001.4,P
1541608195.2,286047007.6,P
1541608215.1,286047006.8,N
1541608216.0,286047006.8,N
1541608235.8,286047007.3,N
1541608255.7,286047004.7,N
1541608275.5,286047007.6,Y
1541608295.3,286047000.9,P
1541608315.2,286047001.2,N
1541608335.0,286047000.5,N
1541608335.9,286047000.5,N
1541608355.8,286047000.5,N
1541608375.6,286046999.9,N
1541608395.4,286046999.0,N
1541608415.3,286046996.6,N
1541608435.1,286047000.9,N
1541608455.8,286046999.7,N
1541608475.7,286047000.2,N
1541608495.5,286047001.8,N
1541608515.3,286047003.5,N
1541608535.2,286047003.4,N
1541608555.0,286047003.4,N
1541608555.9,286047003.4,N
1541608575.8,286047005.7,N
1541608595.6,286047007.6,Y
1541608615.4,286047005.8,P
1541608635.3,286047005.1,N
1541608655.1,286047004.5,N
1541608675.9,286047003.2,N
1541608695.7,286047004.1,N
1541608715.5,286047005.4,Y
1541608735.4,286046999.7,P
1541608755.2,286047002.5,N
1541608775.0,286047002.5,N
1541608775.9,286047002.5,N
1541608795.8,286047002.4,N
1541608815.6,286047000.5,N
1541608835.5,286047000.4,N
1541608855.3,286047000.6,N
1541608875.1,286046998.8,N
1541608895.9,286047000.0,N
1541608915.7,286047000.8,N
1541608935.5,286047002.0,N
1541608955.4,286047003.2,N
1541608975.2,286047006.0,Y
1541608995.1,286047002.3,P
1541608996.0,286047002.3,P
1541609015.8,286047004.0,P
1541609035.6,286047002.1,N
1541609055.5,286047003.3,Y
1541609075.3,286047002.8,P
1541609095.1,286047003.6,P
1541609115.9,286047002.2,P
1541609135.7,286047002.1,Y
1541609155.6,286047000.4,P
1541609175.4,286046999.9,N
1541609195.2,286046998.8,N
1541609215.1,286047000.7,N
1541609216.0,286047000.7,N
1541609235.8,286047000.8,N
1541609255.6,286047000.2,N
1541609275.5,286047000.2,N
1541609295.3,286047000.3,N
1541609315.2,286047002.3,N
1541609335.9,286047002.6,N
1541609355.7,286047003.0,N
1541609375.6,286047003.0,N
1541609395.4,286047006.7,Y
1541609415.2,286047003.4,P
1541609435.1,286047001.6,N
1541609436.0,286047001.6,N
1541609455.8,286047003.9,Y
1541609475.7,286047002.9,P
1541609495.5,286047004.4,P
1541609515.3,286047005.6,P
1541609535.2,286047005.2,Y
1541609555.0,286047002.6,P
1541609555.9,286047002.6,P
1541609575.8,286047000.4,N
1541609595.6,286047000.2,N
1541609615.4,286047000.2,N
1541609635.3,286047000.8,N
1541609655.1,286047000.5,N
1541609675.9,286047000.0,N
1541609695.7,286047002.2,N
1541609715.5,286047000.2,N
1541609735.4,286047000.1,N
1541609755.2,286047002.3,N
1541609775.0,286047001.5,N
1541609776.0,286047001.5,N
1541609795.8,286047002.1,N
1541609815.6,286047001.3,N
1541609835.5,286047003.2,N
1541609855.3,286047001.9,N
1541609875.1,286047003.7,Y
1541609895.9,286047001.9,P
1541609915.7,286047000.1,N
1541609935.6,286047003.6,P
1541609955.4,286047003.3,N
1541609975.2,286047003.6,N
1541609995.1,286047004.6,Y
1541609996.0,286047004.6,P
